HAL21 PANC-KLAX

Flight info

Callsign HAL21
Flight time N/A
Altitude 39000
Route MDO B453 BOXER FOT ENI BURGL BAYST1
Aircraft B789/H-SDE1E2E3FGHIJ2J3J4J5M1RWXY/LB1D1

Departure

Time N/A
Airport Ted Stevens Anchorage International Airport (PANC)

Arrival

Time 2026-04-25 05:44
Airport Los Angeles International Airport (KLAX)
Time Latitude Longitude Altitude Speed Heading
2026-04-25 02:17 55.56205 -138.53828 39396 ft 469 kts 136°
2026-04-25 02:18 55.53864 -138.49811 39393 ft 469 kts 136°
2026-04-25 02:18 55.49187 -138.41810 39402 ft 469 kts 136°
2026-04-25 02:19 55.44527 -138.33863 39401 ft 469 kts 136°
2026-04-25 02:19 55.39827 -138.25878 39399 ft 459 kts 136°
2026-04-25 02:19 55.37555 -138.22026 39395 ft 445 kts 136°
2026-04-25 02:20 55.35391 -138.18365 39397 ft 433 kts 136°
2026-04-25 02:20 55.31091 -138.11107 39398 ft 429 kts 136°
2026-04-25 02:21 55.26750 -138.03803 39406 ft 435 kts 136°
2026-04-25 02:21 55.22363 -137.96445 39410 ft 436 kts 136°
2026-04-25 02:22 55.17983 -137.89123 39410 ft 435 kts 136°
2026-04-25 02:22 55.13591 -137.81802 39408 ft 436 kts 137°
2026-04-25 02:23 55.09204 -137.74517 39409 ft 436 kts 137°
2026-04-25 02:23 55.04800 -137.67222 39411 ft 436 kts 136°
2026-04-25 02:24 55.00401 -137.59962 39414 ft 435 kts 136°
2026-04-25 02:24 54.96004 -137.52724 39413 ft 435 kts 136°
2026-04-25 02:25 54.91597 -137.45498 39414 ft 435 kts 136°
2026-04-25 02:25 54.87183 -137.38280 39413 ft 436 kts 137°
2026-04-25 02:26 54.82771 -137.31090 39415 ft 436 kts 137°
2026-04-25 02:26 54.78344 -137.23895 39414 ft 436 kts 137°
2026-04-25 02:27 54.73910 -137.16717 39415 ft 436 kts 137°
2026-04-25 02:27 54.69489 -137.09578 39417 ft 434 kts 137°
2026-04-25 02:28 54.65066 -137.02457 39419 ft 435 kts 137°
2026-04-25 02:28 54.60659 -136.95386 39416 ft 435 kts 137°
2026-04-25 02:29 54.56230 -136.88302 39419 ft 435 kts 137°
2026-04-25 02:29 54.51786 -136.81216 39423 ft 436 kts 137°
2026-04-25 02:30 54.47306 -136.74094 39422 ft 436 kts 137°
2026-04-25 02:30 54.42840 -136.67017 39417 ft 436 kts 137°
2026-04-25 02:31 54.38381 -136.59973 39418 ft 436 kts 137°
2026-04-25 02:31 54.33916 -136.52940 39419 ft 436 kts 137°
2026-04-25 02:32 54.29438 -136.45910 39422 ft 437 kts 137°
2026-04-25 02:32 54.24947 -136.38880 39419 ft 437 kts 137°
2026-04-25 02:33 54.20450 -136.31863 39422 ft 438 kts 137°
2026-04-25 02:33 54.15946 -136.24857 39426 ft 438 kts 137°
2026-04-25 02:34 54.11428 -136.17851 39422 ft 439 kts 137°
2026-04-25 02:34 54.06900 -136.10850 39426 ft 439 kts 137°
2026-04-25 02:35 54.02402 -136.03918 39422 ft 439 kts 137°
2026-04-25 02:35 53.97653 -135.97425 39423 ft 439 kts 143°
2026-04-25 02:36 53.92724 -135.91436 39425 ft 440 kts 143°
2026-04-25 02:36 53.87711 -135.85449 39428 ft 440 kts 143°
2026-04-25 02:37 53.82738 -135.79496 39429 ft 440 kts 143°
2026-04-25 02:37 53.77721 -135.73516 39424 ft 441 kts 143°
2026-04-25 02:38 53.72702 -135.67554 39424 ft 441 kts 143°
2026-04-25 02:38 53.67686 -135.61608 39423 ft 438 kts 143°
2026-04-25 02:38 53.65232 -135.58711 39409 ft 425 kts 143°
2026-04-25 02:39 53.62844 -135.55893 39405 ft 412 kts 143°
2026-04-25 02:39 53.60537 -135.53171 39400 ft 399 kts 143°
2026-04-25 02:39 53.58293 -135.50527 39403 ft 392 kts 143°
2026-04-25 02:40 53.53786 -135.45229 39416 ft 397 kts 143°
2026-04-25 02:40 53.49221 -135.39880 39413 ft 403 kts 143°
2026-04-25 02:41 53.44581 -135.34458 39424 ft 408 kts 143°
2026-04-25 02:41 53.39901 -135.29002 39430 ft 413 kts 143°
2026-04-25 02:42 53.35149 -135.23479 39428 ft 418 kts 143°
2026-04-25 02:42 53.30348 -135.17912 39428 ft 422 kts 143°
2026-04-25 02:43 53.25490 -135.12298 39429 ft 427 kts 143°
2026-04-25 02:43 53.20592 -135.06652 39412 ft 431 kts 144°
2026-04-25 02:44 53.15626 -135.00944 39407 ft 434 kts 144°
2026-04-25 02:44 53.10628 -134.95217 39412 ft 438 kts 144°
2026-04-25 02:45 53.05625 -134.89499 39417 ft 440 kts 144°
2026-04-25 02:45 53.00574 -134.83745 39415 ft 441 kts 144°
2026-04-25 02:46 52.95504 -134.77994 39415 ft 441 kts 144°
2026-04-25 02:46 52.90435 -134.72263 39414 ft 441 kts 144°
2026-04-25 02:47 52.85356 -134.66534 39413 ft 442 kts 144°
2026-04-25 02:47 52.80280 -134.60829 39407 ft 442 kts 144°
2026-04-25 02:48 52.75182 -134.55114 39405 ft 442 kts 144°
2026-04-25 02:48 52.70090 -134.49420 39398 ft 443 kts 144°
2026-04-25 02:49 52.64980 -134.43724 39405 ft 444 kts 144°
2026-04-25 02:49 52.59858 -134.38032 39402 ft 444 kts 144°
2026-04-25 02:50 52.54733 -134.32351 39396 ft 443 kts 144°
2026-04-25 02:50 52.49622 -134.26703 39400 ft 443 kts 144°
2026-04-25 02:51 52.44504 -134.21063 39393 ft 443 kts 144°
2026-04-25 02:51 52.39378 -134.15430 39383 ft 443 kts 144°
2026-04-25 02:52 52.34284 -134.09849 39391 ft 444 kts 144°
2026-04-25 02:52 52.29118 -134.04203 39389 ft 444 kts 144°
2026-04-25 02:53 52.23981 -133.98608 39384 ft 444 kts 144°
2026-04-25 02:53 52.18852 -133.93035 39384 ft 444 kts 144°
2026-04-25 02:54 52.13693 -133.87446 39382 ft 444 kts 144°
2026-04-25 02:54 52.09413 -133.82821 39375 ft 445 kts 144°
2026-04-25 02:55 52.04259 -133.77265 39372 ft 445 kts 144°
2026-04-25 02:55 51.99093 -133.71714 39361 ft 445 kts 144°
2026-04-25 02:56 51.93926 -133.66177 39359 ft 445 kts 144°
2026-04-25 02:56 51.88756 -133.60653 39373 ft 445 kts 144°
2026-04-25 02:57 51.83583 -133.55138 39363 ft 446 kts 144°
2026-04-25 02:57 51.78432 -133.49666 39353 ft 446 kts 144°
2026-04-25 02:58 51.73250 -133.44173 39354 ft 446 kts 144°
2026-04-25 02:58 51.68059 -133.38689 39348 ft 446 kts 144°
2026-04-25 02:59 51.62868 -133.33219 39345 ft 446 kts 144°
2026-04-25 02:59 51.57665 -133.27749 39345 ft 447 kts 144°
2026-04-25 03:00 51.52434 -133.22268 39340 ft 447 kts 144°
2026-04-25 03:00 51.47465 -133.17074 39341 ft 447 kts 144°
2026-04-25 03:01 51.42258 -133.11647 39340 ft 447 kts 144°
2026-04-25 03:01 51.37031 -133.06213 39339 ft 448 kts 144°
2026-04-25 03:02 51.31803 -133.00796 39336 ft 448 kts 144°
2026-04-25 03:02 51.26569 -132.95384 39330 ft 448 kts 144°
2026-04-25 03:03 51.21386 -132.90040 39329 ft 449 kts 144°
2026-04-25 03:03 51.16133 -132.84641 39326 ft 449 kts 144°
2026-04-25 03:04 51.10917 -132.79291 39325 ft 449 kts 144°
2026-04-25 03:04 51.05659 -132.73916 39331 ft 450 kts 144°
2026-04-25 03:05 50.97735 -132.65841 39321 ft 451 kts 144°
2026-04-25 03:05 50.92447 -132.60491 39321 ft 452 kts 144°
2026-04-25 03:06 50.87131 -132.55118 39321 ft 453 kts 144°
2026-04-25 03:06 50.81822 -132.49768 39320 ft 453 kts 144°
2026-04-25 03:07 50.76486 -132.44405 39319 ft 454 kts 144°
2026-04-25 03:07 50.71146 -132.39056 39314 ft 455 kts 144°
2026-04-25 03:08 50.65802 -132.33709 39309 ft 456 kts 144°
2026-04-25 03:08 50.60428 -132.28358 39310 ft 457 kts 144°
2026-04-25 03:09 50.55049 -132.23012 39309 ft 457 kts 145°
2026-04-25 03:09 50.49664 -132.17671 39304 ft 458 kts 145°
2026-04-25 03:10 50.44227 -132.12297 39302 ft 459 kts 145°
2026-04-25 03:10 50.38849 -132.06997 39303 ft 460 kts 145°
2026-04-25 03:11 50.33422 -132.01661 39301 ft 461 kts 145°
2026-04-25 03:11 50.27955 -131.96299 39296 ft 462 kts 145°
2026-04-25 03:12 50.22533 -131.91001 39295 ft 462 kts 145°
2026-04-25 03:12 50.16998 -131.85869 39285 ft 464 kts 147°
2026-04-25 03:13 50.11422 -131.80756 39291 ft 465 kts 147°
2026-04-25 03:13 50.05789 -131.75734 39287 ft 466 kts 147°
2026-04-25 03:14 50.00185 -131.70688 39289 ft 467 kts 147°
2026-04-25 03:14 49.94527 -131.65698 39289 ft 467 kts 148°
2026-04-25 03:15 49.88870 -131.60703 39290 ft 468 kts 147°
2026-04-25 03:15 49.83193 -131.55714 39285 ft 469 kts 148°
2026-04-25 03:16 49.77511 -131.50728 39285 ft 470 kts 148°
2026-04-25 03:16 49.71832 -131.45758 39282 ft 470 kts 148°
2026-04-25 03:17 49.66119 -131.40776 39280 ft 471 kts 148°
2026-04-25 03:17 49.60399 -131.35799 39274 ft 472 kts 148°
2026-04-25 03:18 49.54681 -131.30838 39275 ft 472 kts 148°
2026-04-25 03:18 49.48935 -131.25864 39270 ft 473 kts 148°
2026-04-25 03:19 49.43214 -131.20930 39269 ft 473 kts 148°
2026-04-25 03:19 49.37445 -131.15963 39267 ft 474 kts 148°
2026-04-25 03:20 49.31690 -131.11023 39267 ft 474 kts 148°
2026-04-25 03:20 49.25922 -131.06085 39262 ft 475 kts 148°
2026-04-25 03:21 49.20151 -131.01160 39261 ft 475 kts 148°
2026-04-25 03:21 49.14366 -130.96234 39255 ft 476 kts 149°
2026-04-25 03:22 49.08580 -130.91321 39259 ft 476 kts 148°
2026-04-25 03:22 49.02783 -130.86413 39256 ft 477 kts 148°
2026-04-25 03:23 48.96933 -130.81471 39252 ft 477 kts 149°
2026-04-25 03:23 48.91126 -130.76582 39251 ft 478 kts 149°
2026-04-25 03:24 48.85308 -130.71695 39248 ft 478 kts 149°
2026-04-25 03:24 48.79473 -130.66810 39245 ft 479 kts 149°
2026-04-25 03:25 48.73638 -130.61935 39245 ft 479 kts 149°
2026-04-25 03:25 48.67793 -130.57067 39240 ft 480 kts 149°
2026-04-25 03:26 48.61930 -130.52196 39242 ft 480 kts 149°
2026-04-25 03:26 48.56068 -130.47340 39239 ft 481 kts 149°
2026-04-25 03:27 48.50232 -130.42517 39233 ft 481 kts 149°
2026-04-25 03:27 48.44364 -130.37681 39233 ft 481 kts 149°
2026-04-25 03:28 48.38477 -130.32842 39235 ft 482 kts 149°
2026-04-25 03:28 48.32595 -130.28020 39231 ft 482 kts 149°
2026-04-25 03:29 48.26704 -130.23203 39230 ft 482 kts 150°
2026-04-25 03:29 48.20806 -130.18394 39226 ft 482 kts 150°
2026-04-25 03:30 48.14900 -130.13593 39224 ft 483 kts 150°
2026-04-25 03:30 48.08992 -130.08802 39221 ft 483 kts 150°
2026-04-25 03:31 48.03082 -130.04022 39216 ft 483 kts 150°
2026-04-25 03:31 47.97163 -129.99248 39214 ft 484 kts 150°
2026-04-25 03:32 47.91237 -129.94481 39216 ft 484 kts 150°
2026-04-25 03:32 47.86273 -129.90497 39217 ft 484 kts 150°
2026-04-25 03:33 47.80379 -129.85778 39211 ft 484 kts 150°
2026-04-25 03:33 47.74461 -129.81052 39211 ft 483 kts 150°
2026-04-25 03:34 47.68535 -129.76332 39207 ft 484 kts 150°
2026-04-25 03:34 47.62603 -129.71613 39208 ft 484 kts 150°
2026-04-25 03:35 47.56666 -129.66904 39204 ft 484 kts 150°
2026-04-25 03:35 47.50738 -129.62214 39203 ft 484 kts 150°
2026-04-25 03:36 47.44788 -129.57518 39200 ft 485 kts 150°
2026-04-25 03:36 47.38831 -129.52830 39203 ft 485 kts 150°
2026-04-25 03:37 47.32863 -129.48144 39202 ft 486 kts 150°
2026-04-25 03:37 47.26879 -129.43458 39201 ft 486 kts 150°
2026-04-25 03:38 47.20906 -129.38792 39196 ft 487 kts 150°
2026-04-25 03:38 47.14895 -129.34109 39194 ft 490 kts 151°
2026-04-25 03:39 47.08889 -129.29443 39192 ft 494 kts 151°
2026-04-25 03:39 47.02782 -129.24709 39194 ft 498 kts 151°
2026-04-25 03:40 46.96626 -129.19950 39189 ft 502 kts 151°
2026-04-25 03:40 46.90419 -129.15165 39187 ft 506 kts 151°
2026-04-25 03:41 46.84118 -129.10320 39182 ft 510 kts 151°
2026-04-25 03:41 46.77852 -129.05515 39185 ft 513 kts 151°
2026-04-25 03:42 46.71519 -129.00671 39186 ft 516 kts 151°
2026-04-25 03:42 46.65135 -128.95801 39180 ft 520 kts 151°
2026-04-25 03:43 46.58704 -128.90908 39175 ft 523 kts 151°
2026-04-25 03:43 46.52239 -128.86003 39173 ft 525 kts 151°
2026-04-25 03:44 46.45727 -128.81076 39175 ft 528 kts 151°
2026-04-25 03:44 46.39204 -128.76155 39171 ft 529 kts 152°
2026-04-25 03:45 46.32676 -128.71242 39174 ft 530 kts 152°
2026-04-25 03:45 46.26132 -128.66330 39172 ft 530 kts 152°
2026-04-25 03:46 46.19582 -128.61428 39169 ft 530 kts 152°
2026-04-25 03:46 46.13027 -128.56534 39168 ft 531 kts 152°
2026-04-25 03:47 46.06452 -128.51640 39163 ft 531 kts 152°
2026-04-25 03:47 45.99924 -128.46793 39160 ft 531 kts 152°
2026-04-25 03:48 45.93305 -128.41892 39161 ft 531 kts 152°
2026-04-25 03:48 45.86778 -128.37072 39153 ft 532 kts 152°
2026-04-25 03:49 45.80194 -128.32223 39161 ft 532 kts 152°
2026-04-25 03:49 45.73613 -128.27389 39158 ft 531 kts 152°
2026-04-25 03:50 45.67002 -128.22546 39155 ft 531 kts 152°
2026-04-25 03:50 45.60458 -128.17765 39152 ft 530 kts 152°
2026-04-25 03:51 45.53885 -128.12975 39148 ft 530 kts 152°
2026-04-25 03:51 45.47308 -128.08195 39149 ft 530 kts 152°
2026-04-25 03:52 45.40737 -128.03431 39151 ft 530 kts 152°
2026-04-25 03:52 45.34150 -127.98670 39147 ft 531 kts 152°
2026-04-25 03:53 45.27569 -127.93924 39144 ft 531 kts 153°
2026-04-25 03:53 45.20969 -127.89178 39142 ft 531 kts 153°
2026-04-25 03:54 45.14375 -127.84448 39142 ft 530 kts 153°
2026-04-25 03:54 45.07798 -127.79743 39138 ft 530 kts 153°
2026-04-25 03:55 45.01202 -127.75036 39140 ft 530 kts 153°
2026-04-25 03:55 44.94615 -127.70348 39133 ft 530 kts 153°
2026-04-25 03:56 44.88026 -127.65670 39132 ft 530 kts 153°
2026-04-25 03:56 44.81431 -127.61001 39133 ft 530 kts 153°
2026-04-25 03:57 44.74835 -127.56342 39127 ft 531 kts 153°
2026-04-25 03:57 44.68227 -127.51687 39128 ft 531 kts 153°
2026-04-25 03:58 44.61626 -127.47049 39125 ft 531 kts 153°
2026-04-25 03:58 44.55023 -127.42422 39123 ft 530 kts 153°
2026-04-25 03:59 44.48416 -127.37803 39117 ft 530 kts 153°
2026-04-25 03:59 44.41830 -127.33212 39116 ft 529 kts 153°
2026-04-25 04:00 44.35231 -127.28621 39112 ft 529 kts 153°
2026-04-25 04:00 44.28640 -127.24050 39107 ft 529 kts 153°
2026-04-25 04:01 44.22035 -127.19479 39102 ft 529 kts 153°
2026-04-25 04:01 44.15432 -127.14921 39102 ft 530 kts 153°
2026-04-25 04:02 44.08823 -127.10370 39094 ft 530 kts 154°
2026-04-25 04:02 44.02199 -127.05822 39093 ft 530 kts 154°
2026-04-25 04:03 43.95629 -127.01319 39098 ft 531 kts 154°
2026-04-25 04:03 43.89010 -126.96799 39089 ft 530 kts 154°
2026-04-25 04:04 43.82384 -126.92279 39080 ft 531 kts 154°
2026-04-25 04:04 43.75767 -126.87781 39079 ft 530 kts 154°
2026-04-25 04:05 43.69136 -126.83283 39078 ft 530 kts 154°
2026-04-25 04:05 43.62463 -126.78768 39072 ft 530 kts 154°
2026-04-25 04:06 43.55855 -126.74307 39067 ft 529 kts 154°
2026-04-25 04:06 43.49276 -126.69878 39058 ft 530 kts 154°
2026-04-25 04:07 43.42654 -126.65430 39057 ft 528 kts 154°
2026-04-25 04:07 43.36079 -126.60975 39047 ft 527 kts 154°
2026-04-25 04:08 43.29492 -126.56537 39041 ft 527 kts 154°
2026-04-25 04:08 43.22904 -126.52105 39047 ft 526 kts 154°
2026-04-25 04:09 43.16345 -126.47704 39043 ft 526 kts 154°
2026-04-25 04:09 43.09768 -126.43301 39037 ft 526 kts 155°
2026-04-25 04:10 43.03198 -126.38912 39029 ft 525 kts 155°
2026-04-25 04:10 42.96639 -126.34544 39033 ft 524 kts 155°
2026-04-25 04:11 42.86795 -126.28005 39023 ft 523 kts 155°
2026-04-25 04:12 42.80248 -126.23667 39021 ft 523 kts 155°
2026-04-25 04:12 42.73709 -126.19348 39022 ft 522 kts 155°
2026-04-25 04:12 42.70552 -126.16905 39055 ft 522 kts 144°
2026-04-25 04:13 42.67646 -126.14040 39035 ft 523 kts 144°
2026-04-25 04:13 42.61775 -126.08216 39029 ft 523 kts 145°
2026-04-25 04:14 42.55878 -126.02425 39027 ft 523 kts 145°
2026-04-25 04:14 42.50004 -125.96641 39023 ft 522 kts 145°
2026-04-25 04:15 42.45098 -125.91836 39022 ft 522 kts 145°
2026-04-25 04:15 42.39173 -125.86039 39017 ft 523 kts 145°
2026-04-25 04:16 42.33281 -125.80289 39012 ft 522 kts 145°
2026-04-25 04:16 42.27384 -125.74546 39011 ft 522 kts 145°
2026-04-25 04:17 42.21474 -125.68805 39004 ft 522 kts 146°
2026-04-25 04:17 42.15592 -125.63103 38999 ft 522 kts 146°
2026-04-25 04:18 42.09703 -125.57410 39002 ft 521 kts 146°
2026-04-25 04:18 42.03809 -125.51724 38992 ft 521 kts 146°
2026-04-25 04:19 41.97943 -125.46078 38988 ft 521 kts 146°
2026-04-25 04:19 41.92053 -125.40423 38985 ft 520 kts 146°
2026-04-25 04:20 41.86165 -125.34782 38985 ft 519 kts 146°
2026-04-25 04:20 41.80285 -125.29162 38980 ft 519 kts 146°
2026-04-25 04:21 41.74396 -125.23548 38979 ft 520 kts 146°
2026-04-25 04:21 41.68498 -125.17937 38979 ft 520 kts 146°
2026-04-25 04:22 41.62599 -125.12337 38974 ft 520 kts 146°
2026-04-25 04:22 41.56699 -125.06749 38975 ft 519 kts 146°
2026-04-25 04:23 41.50801 -125.01177 38981 ft 520 kts 147°
2026-04-25 04:23 41.44881 -124.95596 38981 ft 521 kts 147°
2026-04-25 04:24 41.38989 -124.90055 38975 ft 522 kts 147°
2026-04-25 04:24 41.33007 -124.84440 38976 ft 523 kts 147°
2026-04-25 04:25 41.27050 -124.78864 38982 ft 525 kts 147°
2026-04-25 04:25 41.21086 -124.73292 38981 ft 524 kts 147°
2026-04-25 04:26 41.15107 -124.67719 38982 ft 525 kts 147°
2026-04-25 04:26 41.09139 -124.62170 38981 ft 525 kts 147°
2026-04-25 04:27 41.03152 -124.56615 38983 ft 525 kts 147°
2026-04-25 04:27 40.97165 -124.51073 38984 ft 525 kts 147°
2026-04-25 04:28 40.91173 -124.45538 38987 ft 525 kts 147°
2026-04-25 04:28 40.85180 -124.40016 38982 ft 526 kts 147°
2026-04-25 04:29 40.79167 -124.34488 38990 ft 527 kts 148°
2026-04-25 04:29 40.73151 -124.28968 38985 ft 527 kts 148°
2026-04-25 04:30 40.67096 -124.23537 39001 ft 524 kts 155°
2026-04-25 04:30 40.60534 -124.19432 39012 ft 523 kts 158°
2026-04-25 04:31 40.53932 -124.15440 39011 ft 523 kts 158°
2026-04-25 04:31 40.47326 -124.11427 39008 ft 523 kts 158°
2026-04-25 04:32 40.40706 -124.07431 38996 ft 523 kts 158°
2026-04-25 04:32 40.34091 -124.03437 38981 ft 523 kts 158°
2026-04-25 04:33 40.27435 -123.99433 38978 ft 523 kts 158°
2026-04-25 04:33 40.20818 -123.95457 38957 ft 523 kts 158°
2026-04-25 04:34 40.14213 -123.91499 38950 ft 522 kts 159°
2026-04-25 04:34 40.07601 -123.87545 38942 ft 521 kts 159°
2026-04-25 04:35 40.01010 -123.83612 38950 ft 522 kts 159°
2026-04-25 04:35 39.94395 -123.79673 38941 ft 521 kts 159°
2026-04-25 04:36 39.87852 -123.75785 38939 ft 521 kts 159°
2026-04-25 04:36 39.81240 -123.71864 38937 ft 522 kts 159°
2026-04-25 04:37 39.74629 -123.67952 38934 ft 522 kts 159°
2026-04-25 04:37 39.67976 -123.64023 38937 ft 521 kts 159°
2026-04-25 04:38 39.61382 -123.60139 38931 ft 521 kts 159°
2026-04-25 04:38 39.54791 -123.56264 38942 ft 521 kts 159°
2026-04-25 04:39 39.48188 -123.52389 38952 ft 521 kts 159°
2026-04-25 04:39 39.41590 -123.48526 38956 ft 520 kts 159°
2026-04-25 04:40 39.34990 -123.44671 38954 ft 520 kts 159°
2026-04-25 04:40 39.28390 -123.40821 38933 ft 520 kts 159°
2026-04-25 04:41 39.21803 -123.36989 38932 ft 520 kts 159°
2026-04-25 04:41 39.15205 -123.33158 38940 ft 519 kts 159°
2026-04-25 04:42 39.08575 -123.29316 38940 ft 519 kts 159°
2026-04-25 04:42 39.02412 -123.24556 38958 ft 525 kts 146°
2026-04-25 04:43 38.96569 -123.18771 38946 ft 527 kts 146°
2026-04-25 04:43 38.90756 -123.13033 38935 ft 527 kts 146°
2026-04-25 04:44 38.84941 -123.07308 38923 ft 527 kts 146°
2026-04-25 04:44 38.79119 -123.01584 38916 ft 526 kts 146°
2026-04-25 04:45 38.73308 -122.95887 38922 ft 526 kts 146°
2026-04-25 04:45 38.67459 -122.90160 38931 ft 526 kts 146°
2026-04-25 04:46 38.61631 -122.84470 38941 ft 527 kts 146°
2026-04-25 04:46 38.55777 -122.78763 38945 ft 526 kts 146°
2026-04-25 04:47 38.50932 -122.74052 38949 ft 526 kts 146°
2026-04-25 04:47 38.45089 -122.68378 38942 ft 527 kts 146°
2026-04-25 04:48 38.39252 -122.62723 38936 ft 527 kts 146°
2026-04-25 04:48 38.33365 -122.57032 38940 ft 528 kts 147°
2026-04-25 04:49 38.27515 -122.51387 38950 ft 528 kts 147°
2026-04-25 04:49 38.22555 -122.46611 38951 ft 528 kts 147°
2026-04-25 04:50 38.16688 -122.40972 38942 ft 530 kts 147°
2026-04-25 04:50 38.10794 -122.35320 38942 ft 530 kts 147°
2026-04-25 04:51 38.04991 -122.29765 38935 ft 531 kts 147°
2026-04-25 04:51 37.99710 -122.24720 38947 ft 531 kts 147°
2026-04-25 04:52 37.93798 -122.19083 38954 ft 531 kts 147°
2026-04-25 04:52 37.87855 -122.13428 38950 ft 531 kts 147°
2026-04-25 04:53 37.81925 -122.07798 38960 ft 531 kts 147°
2026-04-25 04:53 37.76014 -122.02198 38958 ft 532 kts 147°
2026-04-25 04:54 37.70087 -121.96592 38950 ft 532 kts 148°
2026-04-25 04:54 37.64153 -121.90993 38953 ft 532 kts 148°
2026-04-25 04:55 37.58220 -121.85405 38963 ft 533 kts 148°
2026-04-25 04:55 37.52251 -121.79795 38952 ft 532 kts 148°
2026-04-25 04:56 37.46301 -121.74214 38956 ft 533 kts 148°
2026-04-25 04:56 37.40356 -121.68650 38947 ft 533 kts 148°
2026-04-25 04:57 37.34401 -121.63088 38952 ft 534 kts 148°
2026-04-25 04:57 37.28429 -121.57519 38941 ft 534 kts 148°
2026-04-25 04:58 37.22457 -121.51966 38932 ft 534 kts 148°
2026-04-25 04:58 37.16443 -121.46380 38951 ft 534 kts 149°
2026-04-25 04:59 37.10473 -121.40848 38964 ft 533 kts 149°
2026-04-25 04:59 37.04466 -121.35294 38975 ft 532 kts 149°
2026-04-25 05:00 36.98509 -121.29796 38985 ft 532 kts 149°
2026-04-25 05:00 36.92548 -121.24305 38987 ft 531 kts 149°
2026-04-25 05:01 36.86563 -121.18804 38985 ft 530 kts 149°
2026-04-25 05:01 36.80602 -121.13336 38964 ft 531 kts 149°
2026-04-25 05:02 36.74608 -121.07847 38956 ft 530 kts 149°
2026-04-25 05:02 36.68681 -121.02433 38936 ft 530 kts 149°
2026-04-25 05:03 36.62736 -120.97009 38938 ft 530 kts 149°
2026-04-25 05:03 36.56794 -120.91602 38924 ft 529 kts 149°
2026-04-25 05:04 36.50863 -120.86216 38937 ft 529 kts 149°
2026-04-25 05:04 36.44912 -120.80818 38931 ft 529 kts 149°
2026-04-25 05:05 36.38951 -120.75425 38926 ft 530 kts 149°
2026-04-25 05:05 36.32959 -120.70013 38918 ft 530 kts 149°
2026-04-25 05:06 36.26990 -120.64632 38916 ft 530 kts 149°
2026-04-25 05:06 36.21024 -120.59265 38911 ft 530 kts 150°
2026-04-25 05:07 36.15048 -120.53900 38911 ft 531 kts 150°
2026-04-25 05:07 36.09021 -120.48497 38912 ft 532 kts 150°
2026-04-25 05:08 36.03027 -120.43136 38913 ft 531 kts 150°
2026-04-25 05:08 35.97039 -120.37790 38920 ft 531 kts 150°
2026-04-25 05:09 35.91043 -120.32448 38925 ft 531 kts 150°
2026-04-25 05:09 35.85055 -120.27121 38926 ft 531 kts 150°
2026-04-25 05:10 35.80034 -120.22665 38923 ft 531 kts 150°
2026-04-25 05:10 35.74033 -120.17347 38912 ft 532 kts 150°
2026-04-25 05:11 35.67970 -120.11983 38909 ft 532 kts 151°
2026-04-25 05:11 35.61838 -120.07184 38920 ft 528 kts 155°
2026-04-25 05:12 35.52369 -120.00037 38916 ft 529 kts 155°
2026-04-25 05:12 35.46079 -119.95311 38910 ft 530 kts 156°
2026-04-25 05:13 35.39863 -119.90631 38901 ft 509 kts 156°
2026-04-25 05:13 35.36897 -119.88404 38891 ft 493 kts 156°
2026-04-25 05:13 35.34008 -119.86246 38893 ft 478 kts 157°
2026-04-25 05:14 35.31212 -119.84158 38891 ft 464 kts 157°
2026-04-25 05:14 35.28519 -119.82074 38886 ft 456 kts 150°
2026-04-25 05:14 35.26039 -119.79710 38873 ft 444 kts 152°
2026-04-25 05:15 35.21207 -119.75256 38884 ft 432 kts 152°
2026-04-25 05:15 35.16368 -119.70725 38891 ft 444 kts 152°
2026-04-25 05:15 35.13922 -119.68431 38718 ft 441 kts 152°
2026-04-25 05:16 35.11477 -119.66159 38181 ft 442 kts 152°
2026-04-25 05:16 35.09000 -119.63859 37794 ft 438 kts 152°
2026-04-25 05:16 35.06592 -119.61614 37396 ft 435 kts 152°
2026-04-25 05:16 35.04192 -119.59379 37007 ft 432 kts 152°
2026-04-25 05:17 35.01812 -119.57170 36610 ft 428 kts 152°
2026-04-25 05:17 34.99447 -119.54975 36226 ft 425 kts 152°
2026-04-25 05:17 34.97071 -119.52773 35497 ft 429 kts 151°
2026-04-25 05:17 34.94639 -119.50540 34009 ft 455 kts 150°
2026-04-25 05:18 34.92040 -119.48141 32208 ft 481 kts 148°
2026-04-25 05:18 34.89281 -119.45589 31031 ft 494 kts 149°
2026-04-25 05:18 34.86553 -119.43145 30504 ft 487 kts 149°
2026-04-25 05:18 34.83815 -119.40736 29855 ft 483 kts 149°
2026-04-25 05:19 34.81117 -119.38331 29172 ft 479 kts 148°
2026-04-25 05:19 34.78444 -119.35919 28519 ft 474 kts 148°
2026-04-25 05:19 34.75804 -119.33555 27871 ft 469 kts 149°
2026-04-25 05:19 34.73175 -119.31229 27222 ft 464 kts 149°
2026-04-25 05:20 34.70567 -119.28965 26600 ft 459 kts 149°
2026-04-25 05:20 34.67976 -119.26718 25982 ft 455 kts 149°
2026-04-25 05:20 34.65427 -119.24486 25380 ft 450 kts 149°
2026-04-25 05:20 34.62895 -119.22275 24780 ft 446 kts 149°
2026-04-25 05:21 34.60404 -119.20137 24191 ft 442 kts 149°
2026-04-25 05:21 34.57902 -119.17996 23609 ft 438 kts 149°
2026-04-25 05:21 34.55432 -119.15864 22944 ft 434 kts 148°
2026-04-25 05:21 34.53001 -119.13704 22291 ft 430 kts 147°
2026-04-25 05:22 34.50584 -119.11530 21645 ft 426 kts 148°
2026-04-25 05:22 34.48198 -119.09418 21016 ft 422 kts 148°
2026-04-25 05:22 34.45828 -119.07339 20377 ft 418 kts 148°
2026-04-25 05:22 34.43491 -119.05279 19746 ft 415 kts 148°
2026-04-25 05:23 34.41161 -119.03246 19139 ft 411 kts 149°
2026-04-25 05:23 34.38844 -119.01256 18515 ft 408 kts 149°
2026-04-25 05:23 34.36537 -118.99268 17848 ft 404 kts 148°
2026-04-25 05:23 34.34269 -118.97294 17227 ft 399 kts 147°
2026-04-25 05:24 34.32095 -118.95252 16542 ft 396 kts 147°
2026-04-25 05:24 34.29930 -118.93339 16281 ft 380 kts 148°
2026-04-25 05:24 34.27808 -118.91458 15776 ft 374 kts 147°
2026-04-25 05:24 34.25739 -118.89568 15293 ft 368 kts 146°
2026-04-25 05:25 34.23721 -118.87709 14808 ft 362 kts 146°
2026-04-25 05:25 34.21735 -118.85877 14331 ft 357 kts 146°
2026-04-25 05:25 34.19857 -118.84151 14129 ft 344 kts 146°
2026-04-25 05:25 34.17997 -118.82444 13988 ft 328 kts 146°
2026-04-25 05:26 34.16232 -118.80783 13732 ft 319 kts 141°
2026-04-25 05:26 34.14636 -118.78945 13357 ft 312 kts 142°
2026-04-25 05:26 34.13014 -118.77256 13037 ft 304 kts 143°
2026-04-25 05:26 34.11442 -118.75598 12719 ft 297 kts 141°
2026-04-25 05:27 34.09931 -118.73940 12404 ft 291 kts 141°
2026-04-25 05:27 34.08458 -118.72320 12114 ft 284 kts 141°
2026-04-25 05:27 34.07001 -118.70741 11825 ft 277 kts 141°
2026-04-25 05:27 34.05577 -118.69201 11520 ft 276 kts 141°
2026-04-25 05:28 34.04153 -118.67657 11480 ft 273 kts 141°
2026-04-25 05:28 34.02729 -118.66114 11480 ft 277 kts 141°
2026-04-25 05:28 34.01289 -118.64553 11487 ft 279 kts 141°
2026-04-25 05:28 33.99848 -118.62993 11489 ft 279 kts 141°
2026-04-25 05:29 33.98404 -118.61428 11492 ft 279 kts 141°
2026-04-25 05:29 33.96965 -118.59865 11435 ft 278 kts 140°
2026-04-25 05:29 33.95930 -118.57882 10787 ft 289 kts 104°
2026-04-25 05:29 33.95972 -118.55471 10225 ft 293 kts 70°
2026-04-25 05:30 33.97100 -118.53482 9844 ft 283 kts 32°
2026-04-25 05:30 33.98788 -118.52486 10001 ft 268 kts 21°
2026-04-25 05:30 34.00480 -118.51580 10001 ft 257 kts 25°
2026-04-25 05:30 34.01763 -118.50174 9414 ft 255 kts 63°
2026-04-25 05:31 34.02112 -118.48139 8654 ft 251 kts 99°
2026-04-25 05:31 34.01579 -118.46170 7906 ft 244 kts 112°
2026-04-25 05:31 34.01330 -118.44136 7165 ft 246 kts 86°
2026-04-25 05:31 34.01551 -118.42151 6955 ft 239 kts 78°
2026-04-25 05:32 34.01941 -118.40211 6620 ft 238 kts 76°
2026-04-25 05:32 34.02316 -118.38253 6311 ft 236 kts 78°
2026-04-25 05:32 34.02653 -118.36315 5964 ft 235 kts 77°
2026-04-25 05:32 34.03022 -118.34397 5634 ft 234 kts 76°
2026-04-25 05:33 34.03392 -118.32514 5311 ft 233 kts 76°
2026-04-25 05:33 34.03765 -118.30616 5011 ft 232 kts 76°
2026-04-25 05:33 34.04134 -118.28734 5004 ft 228 kts 76°
2026-04-25 05:33 34.04500 -118.26866 4819 ft 230 kts 76°
2026-04-25 05:34 34.04871 -118.24978 4535 ft 231 kts 76°
2026-04-25 05:34 34.05241 -118.23102 4277 ft 230 kts 76°
2026-04-25 05:34 34.05610 -118.21228 4038 ft 229 kts 76°
2026-04-25 05:34 34.05967 -118.19414 3977 ft 215 kts 76°
2026-04-25 05:35 34.06294 -118.17753 3974 ft 202 kts 76°
2026-04-25 05:35 34.06620 -118.16095 3972 ft 198 kts 76°
2026-04-25 05:35 34.06937 -118.14483 3973 ft 197 kts 76°
2026-04-25 05:35 34.07213 -118.12876 3963 ft 196 kts 84°
2026-04-25 05:36 34.07218 -118.11272 3971 ft 196 kts 91°
2026-04-25 05:36 34.07139 -118.09604 3950 ft 196 kts 102°
2026-04-25 05:36 34.06649 -118.08085 3985 ft 201 kts 117°
2026-04-25 05:36 34.05906 -118.06516 4013 ft 223 kts 129°
2026-04-25 05:37 34.04701 -118.05398 4000 ft 221 kts 158°
2026-04-25 05:37 34.03174 -118.05048 4001 ft 223 kts 184°
2026-04-25 05:37 34.01707 -118.05542 3999 ft 222 kts 210°
2026-04-25 05:37 34.00612 -118.06799 3995 ft 221 kts 238°
2026-04-25 05:38 33.99876 -118.08420 3766 ft 220 kts 243°
2026-04-25 05:38 33.99167 -118.10047 3304 ft 222 kts 241°
2026-04-25 05:38 33.98379 -118.11635 3118 ft 218 kts 238°
2026-04-25 05:38 33.97557 -118.13185 3002 ft 214 kts 237°
2026-04-25 05:39 33.96761 -118.14694 2979 ft 218 kts 238°
2026-04-25 05:39 33.96121 -118.16294 2981 ft 207 kts 252°
2026-04-25 05:39 33.95823 -118.17953 3018 ft 198 kts 262°
2026-04-25 05:39 33.95645 -118.19539 3003 ft 185 kts 263°
2026-04-25 05:40 33.95489 -118.21063 2929 ft 183 kts 263°
2026-04-25 05:40 33.95335 -118.22575 2710 ft 180 kts 263°
2026-04-25 05:40 33.95233 -118.23576 2545 ft 177 kts 263°
2026-04-25 05:40 33.95085 -118.25023 2306 ft 172 kts 263°
2026-04-25 05:41 33.94939 -118.26457 2077 ft 173 kts 263°
2026-04-25 05:41 33.94798 -118.27837 1861 ft 165 kts 263°
2026-04-25 05:41 33.94659 -118.29200 1652 ft 162 kts 263°
2026-04-25 05:41 33.94520 -118.30564 1416 ft 162 kts 263°
2026-04-25 05:42 33.94385 -118.31891 1204 ft 162 kts 263°
2026-04-25 05:42 33.94249 -118.33230 981 ft 161 kts 263°
2026-04-25 05:42 33.94113 -118.34574 772 ft 160 kts 262°
2026-04-25 05:42 33.93980 -118.35895 531 ft 159 kts 262°
2026-04-25 05:43 33.93858 -118.37191 336 ft 157 kts 262°
2026-04-25 05:43 33.93723 -118.38457 178 ft 148 kts 261°
2026-04-25 05:43 33.93611 -118.39486 124 ft 143 kts 266°
2026-04-25 05:43 33.93500 -118.40642 132 ft 130 kts 251°
2026-04-25 05:44 33.93402 -118.41491 131 ft 66 kts 262°
2026-04-25 05:44 33.93369 -118.41808 127 ft 27 kts 274°
2026-04-25 05:44 33.93447 -118.41900 128 ft 14 kts 352°
2026-04-25 05:44 33.93568 -118.41918 127 ft 25 kts 353°
2026-04-25 05:45 33.93714 -118.41893 127 ft 13 kts 73°
2026-04-25 05:45 33.93701 -118.41767 131 ft 16 kts 93°
2026-04-25 05:45 33.93711 -118.41631 127 ft 17 kts 80°
2026-04-25 05:45 33.93729 -118.41489 128 ft 18 kts 83°
2026-04-25 05:46 33.93742 -118.41337 131 ft 19 kts 85°
2026-04-25 05:46 33.93756 -118.41179 130 ft 19 kts 81°
2026-04-25 05:46 33.93775 -118.41014 131 ft 20 kts 82°
2026-04-25 05:46 33.93793 -118.40842 130 ft 21 kts 83°
2026-04-25 05:47 33.93812 -118.40664 127 ft 22 kts 83°
2026-04-25 05:47 33.93831 -118.40480 130 ft 22 kts 83°
2026-04-25 05:47 33.93849 -118.40293 130 ft 23 kts 83°
2026-04-25 05:47 33.93866 -118.40113 127 ft 20 kts 84°
2026-04-25 05:48 33.93903 -118.40052 125 ft 5 kts
2026-04-25 05:48 33.93938 -118.40045 128 ft 5 kts 27°
2026-04-25 05:48 33.93955 -118.40018 128 ft 4 kts 67°
2026-04-25 05:48 33.93962 -118.39984 128 ft 2 kts 75°
2026-04-25 05:49 33.93973 -118.39962 128 ft 4 kts 54°
2026-04-25 05:49 33.93974 -118.39960 128 ft 0 kts 54°
2026-04-25 05:49 33.93976 -118.39951 128 ft 1 kts 77°
2026-04-25 05:50 33.93979 -118.39923 128 ft 5 kts 79°
2026-04-25 05:50 33.93994 -118.39904 130 ft 3 kts 32°
2026-04-25 05:50 33.94010 -118.39899 125 ft 2 kts 358°
2026-04-25 05:50 33.94025 -118.39902 129 ft 0 kts 353°
2026-04-25 05:51 33.94035 -118.39903 127 ft 2 kts 353°
2026-04-25 05:51 33.94041 -118.39904 129 ft 1 kts 353°
2026-04-25 05:51 33.94045 -118.39905 128 ft 0 kts 353°
2026-04-25 05:51 33.94047 -118.39905 128 ft 1 kts 353°